User: anonymous   Login
Location: Unspecified
(0.0000°N, 0.0000°E)
Time: 21:11:44
(UTC+02:00)
Language:

ARIANE 5 R/B - Orbit

View from above orbital plane
View from above orbital plane
View from above satellite
View from above satellite

Ground track
Ground track

The orbit data is extracted from the following two-line orbital elements,

1 27387U 02009B   16208.86597942 -.00000006 +00000-0 +12494-4 0  9996
2 27387 098.4181 159.0295 0033094 030.3489 329.9604 14.35903286754816
Epoch (UTC): 26 July 2016 20:47:00
Eccentricity: 0.0033094
inclination: 98.4181°
perigee height: 748 km
apogee height: 796 km
right ascension of ascending node: 159.0295°
argument of perigee: 30.3489°
revolutions per day: 14.35903286
mean anomaly at epoch: 329.9604°
orbit number at epoch: 75481

The dashed part of the orbit path shows where the satellite is in the earth's shadow,  

DLR